Voltar ao catálogo

STARLINK-32712

AtivoComunicaçõesVLEO
NORAD 62433·PAYLOAD·🇺🇸 United States

Lançado Dec 29, 2024 de Vandenberg Space Force Base

Loading…

Próximas Passagens (próximas 24 horas)

TLE

AtualizadoSource: CelesTrak SupGP

Época: Sep 15, 2026, 03:38 UTC

1 62433C 24251B   26258.15187500  .00019259  00000+0  56916-3 0  2585
2 62433  53.1576 174.4219 0001164 101.5027  52.4916 15.34372319    19

Acompanhe STARLINK-32712 em tempo real com AllMySat

Download on the App Store